Location: *
(48.8780°N, 19.2358°E)
Time: 20:47:53
(UTC+00:00)

Cosmos 2082 Rocket - Pass Details

Date: 18 October 2019
Orbit: 832 x 854 km, 71.0° (Epoch: 20 November)

Event Time Altitude Azimuth Distance (km) Brightness Sun altitude
Rises 16:57:05 0° 334° (NNW) 3,436 5.7 -12.0°
Reaches altitude 10° 16:59:41 10° 341° (NNW) 2,495 4.9 -12.4°
Maximum altitude 17:05:09 44° 53° (NE) 1,163 2.6 -13.3°
Enters shadow 17:09:28 16° 120° (ESE) 2,093 3.7 -14.1°
